[[{"header":{"parameterUnit":"m.s-1","parameterCategory":1,"la1":30.2991,"la2":30.254,"lo1":-89.0895,"lo2":-89.0444,"dy":0.0017,"dx":0.0017,"nx":28,"ny":28,"refTime":"2024-11-22T09:00:00:Z","depth":0,"parameterNumber":2,"parameterNumberName":"U-component_of_WINDS"},"data":[0,0,0,0,0,0,0,0,0,0,0,0,0,0,0,0,0,0,0,0,0,0,0,0,0,0,0,0,0,0,0,0,0,0,0,0,0,0,0,0,0,0,0,0,0,0,0,0,0,0,0,0,0,0,0,0,0,0,2.4978,2.4978,0,2.4977,2.4977,2.4977,2.4921,2.492,2.4918,2.4917,2.4916,2.4917,2.4918,0,0,0,0,0,0,0,0,0,0,0,0,0,2.493,2.4932,2.4978,2.4978,2.4978,2.4977,2.4977,2.4977,2.4921,2.492,2.4918,2.4916,2.4915,2.4917,2.4919,0,0,0,0,0,0,0,0,0,0,0,0,0,2.4943,2.4932,2.4978,2.495,2.4947,2.4977,2.4977,2.4977,2.4922,2.492,2.4917,2.4915,2.4915,2.4917,2.4919,2.4975,0,0,2.4925,2.4926,0,0,0,0,0,0,0,0,2.4942,2.4944,2.4954,2.4952,2.4949,2.4947,2.496,2.4977,2.4922,2.4931,2.4917,2.4914,2.4928,2.4929,2.4933,2.4975,2.4975,2.4925,2.4926,2.4927,2.4928,0,0,0,0,0,0,0,2.4941,2.4944,2.4978,2.4954,2.4951,2.4937,2.4937,2.4963,2.4942,2.493,2.4926,2.4927,2.4926,2.4932,2.4933,2.4975,2.4925,2.4927,2.4928,2.4929,2.5064,2.5066,0,0,0,0,0,0,2.4944,2.4944,2.4978,2.4978,2.494,2.494,2.4939,2.495,2.4942,2.4938,2.4929,2.4925,2.4929,2.4931,2.4933,2.4998,2.4927,2.4929,2.493,2.5062,2.5065,2.5067,0,0,0,0,0,0,2.4943,2.4948,2.4978,2.496,2.4962,2.4943,2.4956,2.4951,2.4956,2.4941,2.4936,2.4939,2.4928,2.493,2.4965,2.4998,2.493,2.4932,2.5059,2.5063,2.5066,2.513,0,0,0,0,0,0,2.4942,2.4948,2.4969,2.4961,2.4964,2.501,2.4958,2.4953,2.496,2.4954,2.4948,2.4945,2.4926,2.4963,2.4967,2.4999,2.4933,2.5056,2.5061,2.5065,2.5125,2.5136,2.5145,0,0,0,0,0,2.4941,2.4987,2.497,2.4975,2.499,2.5012,2.5014,2.4991,2.4963,2.4984,2.4974,2.4945,2.4994,2.4967,2.4972,2.5005,2.5054,2.5059,2.5064,2.5121,2.5134,2.5145,0,0,0,0,0,0,2.4999,2.4985,2.4967,2.5011,2.5014,2.5003,2.5028,2.5005,2.5015,2.5009,2.498,2.498,2.502,2.5016,2.4986,2.5059,2.5019,2.5025,2.506,2.5072,2.5082,2.5081,2.4935,0,0,0,0,0,2.5017,2.5037,2.5024,2.5064,2.5066,2.5048,2.5057,2.5039,2.504,2.504,2.5033,2.5035,2.505,2.5061,2.5075,2.5125,2.5123,2.515,2.516,2.5168,2.5174,2.52,2.5212,2.5085,2.5085,2.5085,0,0,2.5054,2.5049,2.5063,2.5076,2.5075,2.5096,2.5049,2.5073,2.5088,2.5044,2.5077,2.5072,2.5072,2.5115,2.5134,2.5113,2.5209,2.5175,2.5181,2.5183,2.5207,2.5219,2.523,2.5088,2.5088,2.5087,0,0,2.5133,2.5131,2.5165,2.5166,2.5166,2.5154,2.5162,2.5155,2.515,2.5183,2.5151,2.5169,2.5196,2.5198,2.5202,2.5284,2.5258,2.5289,2.5339,2.5366,2.5376,2.5384,2.5413,2.5424,2.5295,2.5295,2.5295,0,2.5179,2.5209,2.5185,2.5212,2.5219,2.5181,2.5215,2.5217,2.5222,2.5227,2.5204,2.5238,2.5236,2.5279,2.5299,2.5304,2.5313,2.5289,2.5376,2.5385,2.5392,2.542,2.543,2.5299,2.5298,2.5298,2.5298,0,2.5266,2.5288,2.5315,2.5321,2.5331,2.5362,2.5342,2.5355,2.5338,2.5328,2.5362,2.5358,2.537,2.5379,2.5362,2.5421,2.5408,2.5381,2.534,2.5409,2.5434,2.5444,2.5304,2.5303,2.5302,2.5301,0,0,2.5379,2.5373,2.5384,2.5386,2.5385,2.5401,2.543,2.5442,2.5454,2.5459,2.5482,2.5508,2.5483,2.5488,2.5471,2.5494,2.5559,2.5465,2.5464,2.5482,2.5623,2.5643,2.5655,2.5542,2.5544,2.5546,2.5623,0,2.5455,2.5504,2.5484,2.5535,2.5555,2.552,2.5546,2.5548,2.554,2.5555,2.5546,2.5564,2.5531,2.5534,2.5556,2.5547,2.5587,2.5541,2.5564,2.5565,2.5564,2.5668,2.5689,2.5762,2.5633,2.5634,2.5636,0,2.555,2.5559,2.5612,2.5608,2.5616,2.5639,2.5649,2.5665,2.5667,2.5659,2.5666,2.5644,2.5672,2.5632,2.5671,2.564,2.5648,2.5646,2.5648,2.5648,2.5604,2.5671,2.5784,2.5795,2.5651,2.565,2.5649,0,2.5627,2.5653,2.5688,2.5692,2.5687,2.5705,2.5704,2.5703,2.5713,2.5722,2.5727,2.574,2.5746,2.5757,2.5739,2.5711,2.578,2.5738,2.5774,2.5775,2.5789,2.5788,2.5905,2.5797,2.5796,2.5796,2.5796,0,2.5713,2.5746,2.5723,2.5744,2.5781,2.5758,2.5796,2.5791,2.5791,2.5811,2.5783,2.5802,2.5778,2.5795,2.5781,2.5815,2.5819,2.5813,2.5809,2.5815,2.5816,2.582,2.5814,2.5799,2.5798,2.5798,2.5797,0,2.5804,2.579,2.5826,2.582,2.5819,2.5846,2.5841,2.5861,2.5852,2.5877,2.5882,2.5867,2.5886,2.587,2.5888,2.5879,2.5924,2.5913,2.5924,2.592,2.5957,2.5954,2.6079,2.6095,2.5977,2.5978,2.5979,0,2.5859,2.5885,2.5882,2.5893,2.5895,2.5914,2.5923,2.5902,2.5913,2.5918,2.5937,2.5954,2.5966,2.5998,2.5989,2.6003,2.5991,2.6035,2.5993,2.5999,2.5991,2.599,2.5992,2.6043,2.6044,2.6045,2.6046,0,2.5959,2.5951,2.5966,2.5979,2.5991,2.6,2.6007,2.6018,2.5997,2.6011,2.603,2.604,2.6059,2.6076,2.6087,2.6086,2.6063,2.606,2.6068,2.6075,2.6079,2.6077,2.5946,2.6056,2.6055,2.6055,2.6054,2.6054,2.6034,2.6055,2.6056,2.6074,2.6077,2.6084,2.6103,2.6096,2.6112,2.6126,2.6113,2.6137,2.6139,2.6152,2.6154,2.6172,2.6154,2.6167,2.617,2.6173,2.6178,2.6078,2.6174,2.6173,2.6173,2.6173,2.6173,0,2.6132,2.6131,2.6148,2.6159,2.6173,2.6151,2.6157,2.6171,2.6192,2.6196,2.6209,2.6231,2.6248,2.6241,2.6255,2.6271,2.6261,2.6276,2.6274,2.6274,2.6194,2.6184,2.6284,2.6284,2.6284,2.6284,2.6284,2.6284,2.6184,2.6218,2.6211,2.6247,2.6246,2.6269,2.6275,2.6282,2.6285,2.6312,2.6326,2.6321,2.6321,2.6335,2.635,2.6347,2.6354,2.6372,2.6366,2.6291,2.628,2.6269,2.626,2.6374,2.6374,2.6444,2.6445,2.6446]},{"header":{"parameterUnit":"m.s-1","parameterCategory":1,"la1":30.2991,"la2":30.254,"lo1":-89.0895,"lo2":-89.0444,"dy":0.0017,"dx":0.0017,"nx":28,"ny":28,"refTime":"2024-11-22T09:00:00:Z","depth":0,"parameterNumber":3,"parameterNumberName":"V-component_of_WINDS"},"data":[0,0,0,0,0,0,0,0,0,0,0,0,0,0,0,0,0,0,0,0,0,0,0,0,0,0,0,0,0,0,0,0,0,0,0,0,0,0,0,0,0,0,0,0,0,0,0,0,0,0,0,0,0,0,0,0,0,0,-4.8326,-4.8328,0,-4.8526,-4.8528,-4.8531,-4.8497,-4.8494,-4.8491,-4.8487,-4.869,-4.8699,-4.8707,0,0,0,0,0,0,0,0,0,0,0,0,0,-4.7913,-4.792,-4.8325,-4.8328,-4.833,-4.8526,-4.8528,-4.8531,-4.8498,-4.8494,-4.849,-4.8486,-4.8687,-4.8698,-4.8708,0,0,0,0,0,0,0,0,0,0,0,0,0,-4.81,-4.7923,-4.8325,-4.8337,-4.8341,-4.8525,-4.8529,-4.8532,-4.8499,-4.8494,-4.8489,-4.8484,-4.8684,-4.8697,-4.8709,-4.8893,0,0,-4.8749,-4.8755,0,0,0,0,0,0,0,0,-4.809,-4.8115,-4.8333,-4.8337,-4.8341,-4.8481,-4.8457,-4.8653,-4.85,-4.8439,-4.8487,-4.8481,-4.8625,-4.8642,-4.8691,-4.8903,-4.8912,-4.875,-4.8758,-4.8764,-4.8767,0,0,0,0,0,0,0,-4.8077,-4.8107,-4.8405,-4.8336,-4.8341,-4.8333,-4.8354,-4.8494,-4.8558,-4.8444,-4.8442,-4.8466,-4.8626,-4.8679,-4.8696,-4.8915,-4.875,-4.8761,-4.8769,-4.8774,-4.9289,-4.9294,0,0,0,0,0,0,-4.806,-4.8096,-4.8398,-4.8411,-4.82,-4.8344,-4.8368,-4.8442,-4.8557,-4.8569,-4.847,-4.8464,-4.8659,-4.8681,-4.8703,-4.8927,-4.8763,-4.8776,-4.8783,-4.9283,-4.929,-4.9296,0,0,0,0,0,0,-4.8052,-4.8088,-4.839,-4.8253,-4.8291,-4.8357,-4.844,-4.8448,-4.8501,-4.8577,-4.8588,-4.8513,-4.8656,-4.8685,-4.8847,-4.8933,-4.8781,-4.8793,-4.9276,-4.9285,-4.9293,-4.9376,0,0,0,0,0,0,-4.804,-4.8085,-4.8155,-4.8255,-4.8298,-4.8532,-4.8445,-4.8456,-4.8524,-4.8517,-4.862,-4.8632,-4.8654,-4.8828,-4.886,-4.8949,-4.8803,-4.9268,-4.928,-4.929,-4.9366,-4.9387,-4.9404,0,0,0,0,0,-4.8025,-4.817,-4.8159,-4.8196,-4.8388,-4.8537,-4.8561,-4.8585,-4.8531,-4.8603,-4.8652,-4.8628,-4.8919,-4.8845,-4.888,-4.8974,-4.9263,-4.9277,-4.9289,-4.9357,-4.9383,-4.9404,0,0,0,0,0,0,-4.8078,-4.8183,-4.8172,-4.8354,-4.8437,-4.8531,-4.8622,-4.8611,-4.871,-4.87,-4.8724,-4.8747,-4.8912,-4.8959,-4.8875,-4.9159,-4.9083,-4.9104,-4.9123,-4.9147,-4.9166,-4.9152,-4.8814,0,0,0,0,0,-4.8111,-4.8223,-4.8308,-4.846,-4.8503,-4.8555,-4.8621,-4.8632,-4.8718,-4.8753,-4.8813,-4.8898,-4.9008,-4.908,-4.9186,-4.9372,-4.9395,-4.9455,-4.9474,-4.9489,-4.9508,-4.9611,-4.9639,-4.934,-4.934,-4.9339,0,0,-4.818,-4.8251,-4.832,-4.8473,-4.8538,-4.8654,-4.8585,-4.8709,-4.8795,-4.8771,-4.8929,-4.8977,-4.9072,-4.9248,-4.9328,-4.9292,-4.9595,-4.9506,-4.9518,-4.9528,-4.9628,-4.9656,-4.9681,-4.9349,-4.9347,-4.9346,0,0,-4.8364,-4.8429,-4.8563,-4.8631,-4.8731,-4.8766,-4.8798,-4.8895,-4.8926,-4.9084,-4.9069,-4.9171,-4.936,-4.943,-4.949,-4.9702,-4.9685,-4.9736,-4.9836,-4.9937,-4.9961,-4.9982,-5.0059,-5.0086,-4.9753,-4.9754,-4.9754,0,-4.8437,-4.8611,-4.8633,-4.8761,-4.8829,-4.8814,-4.895,-4.9014,-4.9143,-4.9191,-4.9149,-4.9387,-4.945,-4.9642,-4.9695,-4.9743,-4.9781,-4.9724,-4.9956,-4.9977,-4.9997,-5.007,-5.0099,-4.9759,-4.9758,-4.9758,-4.9757,0,-4.8696,-4.8816,-4.8913,-4.904,-4.9118,-4.9249,-4.9292,-4.9369,-4.9373,-4.9412,-4.9574,-4.965,-4.9771,-4.9817,-4.9822,-5.0011,-4.9986,-4.995,-4.9874,-5.0031,-5.01,-5.0129,-4.9767,-4.9765,-4.9763,-4.9762,0,0,-4.8919,-4.9058,-4.9093,-4.9151,-4.9261,-4.9355,-4.9485,-4.9605,-4.9671,-4.9761,-4.9871,-5.0032,-5.0,-5.0068,-5.0081,-5.0169,-5.0334,-5.0122,-5.0125,-5.016,-5.0548,-5.0575,-5.0608,-5.0323,-5.0329,-5.0333,-5.054,0,-4.9114,-4.9346,-4.9371,-4.9577,-4.969,-4.9678,-4.9791,-4.9871,-4.9911,-5.0012,-5.0055,-5.017,-5.0118,-5.0159,-5.0246,-5.0296,-5.0413,-5.0281,-5.0426,-5.0431,-5.0404,-5.0644,-5.0673,-5.0865,-5.0568,-5.0572,-5.0576,0,-4.9373,-4.9473,-4.9691,-4.9787,-4.9835,-4.9937,-5.0049,-5.0146,-5.0237,-5.0259,-5.0337,-5.0338,-5.0473,-5.0392,-5.0578,-5.0488,-5.0549,-5.0582,-5.059,-5.0605,-5.0513,-5.0666,-5.0927,-5.0956,-5.0618,-5.0615,-5.0612,0,-4.9516,-4.9703,-4.9859,-4.9908,-5.0024,-5.0096,-5.0148,-5.0233,-5.0304,-5.0402,-5.0449,-5.056,-5.0622,-5.0709,-5.0741,-5.0678,-5.0926,-5.0847,-5.0949,-5.0948,-5.1002,-5.0998,-5.1277,-5.104,-5.1039,-5.1039,-5.1038,0,-4.9732,-4.9866,-4.9924,-5.002,-5.017,-5.0197,-5.0345,-5.0393,-5.047,-5.0574,-5.057,-5.0668,-5.0704,-5.0808,-5.0834,-5.0985,-5.1012,-5.1034,-5.104,-5.1036,-5.1033,-5.1076,-5.1064,-5.1046,-5.1045,-5.1043,-5.1042,0,-4.9916,-4.996,-5.0129,-5.0225,-5.0253,-5.0359,-5.0441,-5.0534,-5.0573,-5.0705,-5.0738,-5.0799,-5.0921,-5.0962,-5.1109,-5.1127,-5.1303,-5.1296,-5.1273,-5.1274,-5.1374,-5.1365,-5.1691,-5.1736,-5.1469,-5.1471,-5.1473,0,-5.0052,-5.0155,-5.0263,-5.0333,-5.0388,-5.0501,-5.0574,-5.0605,-5.0681,-5.0793,-5.0872,-5.0993,-5.1093,-5.1289,-5.1346,-5.1459,-5.1456,-5.1563,-5.1473,-5.1466,-5.1459,-5.1453,-5.1464,-5.1579,-5.1582,-5.1584,-5.1586,0,-5.0288,-5.0305,-5.0411,-5.0525,-5.0612,-5.0703,-5.079,-5.0848,-5.0892,-5.0978,-5.1104,-5.1181,-5.1332,-5.1454,-5.157,-5.1622,-5.1613,-5.1614,-5.1644,-5.1641,-5.1624,-5.1636,-5.132,-5.1607,-5.1604,-5.1603,-5.1602,-5.1601,-5.0453,-5.0545,-5.0636,-5.0754,-5.0823,-5.0906,-5.0998,-5.1049,-5.1155,-5.1281,-5.1293,-5.1429,-5.1518,-5.1673,-5.1731,-5.1838,-5.1808,-5.1851,-5.1862,-5.1872,-5.1881,-5.1606,-5.1859,-5.1859,-5.1858,-5.1858,-5.1857,0,-5.069,-5.0748,-5.0857,-5.098,-5.1073,-5.1057,-5.1153,-5.1232,-5.1352,-5.1436,-5.1535,-5.168,-5.1798,-5.1865,-5.1983,-5.2056,-5.2054,-5.2086,-5.2081,-5.2094,-5.19,-5.1863,-5.2085,-5.2085,-5.2085,-5.2085,-5.2085,-5.2085,-5.0825,-5.098,-5.1008,-5.1197,-5.1254,-5.1388,-5.1445,-5.1521,-5.1589,-5.1752,-5.185,-5.1893,-5.1971,-5.2095,-5.2203,-5.2219,-5.2263,-5.2298,-5.2312,-5.213,-5.2107,-5.2085,-5.205,-5.2307,-5.2308,-5.2497,-5.2498,-5.25]}]]